Airfield :
LOGIN :

Register | Disclaimer

   EN    FR    IT 

 










Legend :    VFR   Marginal VFR   IFR   Intensive IFR   Very Intensive IFR
Visi :
Ceiling :
>= 8 km
>= 3000ft
5 to 8 km
1000 to 3000 ft
1500m to 5 km
500 to 1000 ft
800 to 1500m
200 to 500 ft
< 800m
< 200 ft
Symbols :   Thunderstorms  Fog  Heavy snow  Heavy precipitations  Wind > 20 kt
SIGMETs :     Misc.  Thunderstorms  Icing  Turbulence  Mountain Waves  Volcanic Ashes






- Airport Elevation : 270 ft
- IATA code : OXF


EGTK - Oxford (Kidlington)

CURRENT METAR :
  • 050650Z 30013KT 270V330 9999 SCT033 11/04 Q0996

EXPIRED METARs :
  • 050620Z 29012G22KT CAVOK 11/04 Q0995
  • 050550Z 29010KT CAVOK 10/05 Q0995

TAF TAF EGTK
Valid from the 05 at 06:00 until the 05 at 15:00 UTC


050631Z 0506/0515 29014KT 9999 SCT030
PROB30
TEMPO 0508/0510 7000 RA
TEMPO 0510/0515 30017G27KT 7000 SHRA
PROB30
TEMPO 0510/0515 4000 +SHRA



MET'MAP, your aeronautical weather chart ! - Copyright ORBIFLY December 2007 - Disclaimer

ORBIFLY MET'MAP TEAM :

Programming & Development : Alexandra Zaïnal
Concept & original design : Baudouin d'Aumeries
Assistance for programming : Marc-Olivier Méhu
Technical & hardware support : Manuel Goepfert

Contact : metmap@orbifly.com




SOURCES & CREDITS :

   NOAA